WAT690 SAWH-EGYP

Flight info

Callsign WAT690
Flight time 1h 16m
Altitude 41000
Route GRA2A GRA DCT ATOKI
Aircraft C525/L-SDFGRWY/S

Departure

Time 2026-04-21 13:31
Airport Ushuaia - Malvinas Argentinas International Airport (SAWH)

Arrival

Time 2026-04-21 14:47
Airport Mount Pleasant Airport / RAF Mount Pleasant (EGYP)
Time Latitude Longitude Altitude Speed Heading
2026-04-21 13:25 -54.83944 -68.30763 97 ft 0 kts 266°
2026-04-21 13:25 -54.83945 -68.30763 97 ft 0 kts 266°
2026-04-21 13:26 -54.83948 -68.30764 97 ft 2 kts 170°
2026-04-21 13:26 -54.83972 -68.30762 96 ft 3 kts 189°
2026-04-21 13:26 -54.83994 -68.30789 96 ft 4 kts 216°
2026-04-21 13:26 -54.84025 -68.30803 95 ft 5 kts 180°
2026-04-21 13:27 -54.84063 -68.30799 94 ft 5 kts 175°
2026-04-21 13:27 -54.84082 -68.30796 94 ft 1 kts 176°
2026-04-21 13:27 -54.84097 -68.30794 94 ft 2 kts 164°
2026-04-21 13:27 -54.84107 -68.30784 94 ft 1 kts 135°
2026-04-21 13:28 -54.84114 -68.30746 94 ft 3 kts 90°
2026-04-21 13:28 -54.84117 -68.30688 95 ft 6 kts 115°
2026-04-21 13:28 -54.84168 -68.30666 95 ft 7 kts 180°
2026-04-21 13:28 -54.84209 -68.30709 93 ft 8 kts 257°
2026-04-21 13:29 -54.84214 -68.30808 92 ft 8 kts 264°
2026-04-21 13:29 -54.84219 -68.30911 91 ft 8 kts 267°
2026-04-21 13:29 -54.84260 -68.30958 90 ft 8 kts 171°
2026-04-21 13:29 -54.84309 -68.30956 89 ft 4 kts 177°
2026-04-21 13:30 -54.84336 -68.30955 89 ft 3 kts 176°
2026-04-21 13:30 -54.84366 -68.30956 89 ft 5 kts 179°
2026-04-21 13:30 -54.84382 -68.30899 90 ft 14 kts 89°
2026-04-21 13:30 -54.84360 -68.30311 92 ft 82 kts 86°
2026-04-21 13:31 -54.84308 -68.29037 221 ft 119 kts 86°
2026-04-21 13:31 -54.84309 -68.27543 658 ft 131 kts 89°
2026-04-21 13:31 -54.84242 -68.25894 1081 ft 146 kts 88°
2026-04-21 13:31 -54.84397 -68.23978 1455 ft 172 kts 101°
2026-04-21 13:32 -54.84759 -68.21840 1890 ft 196 kts 105°
2026-04-21 13:32 -54.85223 -68.19403 2316 ft 228 kts 105°
2026-04-21 13:32 -54.85743 -68.16640 2750 ft 255 kts 105°
2026-04-21 13:32 -54.86287 -68.13674 3486 ft 266 kts 105°
2026-04-21 13:33 -54.86839 -68.10631 4398 ft 268 kts 104°
2026-04-21 13:33 -54.87382 -68.07609 5478 ft 262 kts 104°
2026-04-21 13:33 -54.87926 -68.04552 6402 ft 262 kts 103°
2026-04-21 13:33 -54.88477 -68.01443 6980 ft 277 kts 104°
2026-04-21 13:34 -54.89030 -67.98318 7846 ft 277 kts 104°
2026-04-21 13:34 -54.89601 -67.95082 8576 ft 283 kts 104°
2026-04-21 13:34 -54.90186 -67.91768 9308 ft 289 kts 105°
2026-04-21 13:34 -54.90773 -67.88399 9970 ft 296 kts 104°
2026-04-21 13:35 -54.90954 -67.84884 10655 ft 293 kts 78°
2026-04-21 13:35 -54.90218 -67.81701 11269 ft 279 kts 44°
2026-04-21 13:35 -54.88833 -67.79643 11980 ft 256 kts 17°
2026-04-21 13:35 -54.87231 -67.78513 12720 ft 249 kts
2026-04-21 13:36 -54.85600 -67.77525 13435 ft 246 kts
2026-04-21 13:36 -54.83968 -67.77009 14043 ft 238 kts 352°
2026-04-21 13:36 -54.82314 -67.77073 14605 ft 235 kts 343°
2026-04-21 13:36 -54.80730 -67.77338 15410 ft 230 kts 343°
2026-04-21 13:37 -54.79112 -67.77516 16052 ft 233 kts 347°
2026-04-21 13:37 -54.77457 -67.77583 16429 ft 245 kts 348°
2026-04-21 13:37 -54.75795 -67.77560 17165 ft 241 kts 349°
2026-04-21 13:37 -54.74106 -67.77512 17753 ft 242 kts 349°
2026-04-21 13:38 -54.72385 -67.77460 18138 ft 250 kts 350°
2026-04-21 13:38 -54.70633 -67.77408 18540 ft 256 kts 350°
2026-04-21 13:38 -54.68843 -67.77352 18934 ft 261 kts 350°
2026-04-21 13:38 -54.67012 -67.77294 19323 ft 266 kts 350°
2026-04-21 13:39 -54.65132 -67.77235 19725 ft 269 kts 349°
2026-04-21 13:39 -54.63249 -67.77173 20126 ft 272 kts 350°
2026-04-21 13:39 -54.61348 -67.77113 20513 ft 274 kts 350°
2026-04-21 13:39 -54.59437 -67.77052 20899 ft 276 kts 350°
2026-04-21 13:40 -54.57526 -67.76991 21290 ft 277 kts 350°
2026-04-21 13:40 -54.55590 -67.76931 21675 ft 278 kts 350°
2026-04-21 13:40 -54.53650 -67.76870 22063 ft 279 kts 350°
2026-04-21 13:40 -54.51732 -67.76811 22443 ft 279 kts 349°
2026-04-21 13:41 -54.49794 -67.76751 22837 ft 278 kts 350°
2026-04-21 13:41 -54.47873 -67.76691 23208 ft 278 kts 349°
2026-04-21 13:41 -54.45912 -67.76631 23598 ft 278 kts 349°
2026-04-21 13:41 -54.43988 -67.76572 23977 ft 277 kts 349°
2026-04-21 13:42 -54.42054 -67.76513 24359 ft 276 kts 349°
2026-04-21 13:42 -54.40162 -67.76455 24740 ft 275 kts 349°
2026-04-21 13:42 -54.38258 -67.76397 25123 ft 274 kts 349°
2026-04-21 13:42 -54.36353 -67.76338 25508 ft 273 kts 348°
2026-04-21 13:43 -54.34457 -67.76280 25895 ft 272 kts 349°
2026-04-21 13:43 -54.32576 -67.76223 26288 ft 270 kts 348°
2026-04-21 13:43 -54.30729 -67.76166 26664 ft 268 kts 348°
2026-04-21 13:43 -54.28869 -67.76109 27067 ft 266 kts 348°
2026-04-21 13:44 -54.27008 -67.76053 27456 ft 264 kts 348°
2026-04-21 13:44 -54.25180 -67.75997 27845 ft 262 kts 347°
2026-04-21 13:44 -54.23360 -67.75942 28222 ft 260 kts 347°
2026-04-21 13:44 -54.21572 -67.75887 28608 ft 257 kts 347°
2026-04-21 13:45 -54.19798 -67.75833 28989 ft 255 kts 346°
2026-04-21 13:45 -54.18058 -67.75781 29376 ft 252 kts 346°
2026-04-21 13:45 -54.16317 -67.75727 29772 ft 249 kts 347°
2026-04-21 13:45 -54.14591 -67.75675 30162 ft 246 kts 346°
2026-04-21 13:46 -54.12900 -67.75623 30557 ft 243 kts 346°
2026-04-21 13:46 -54.11220 -67.75573 30931 ft 240 kts 346°
2026-04-21 13:46 -54.09575 -67.75523 31287 ft 236 kts 344°
2026-04-21 13:46 -54.07929 -67.75473 31660 ft 232 kts 345°
2026-04-21 13:47 -54.06340 -67.75424 32002 ft 229 kts 344°
2026-04-21 13:47 -54.04771 -67.75377 32347 ft 225 kts 343°
2026-04-21 13:47 -54.03204 -67.75329 32707 ft 221 kts 344°
2026-04-21 13:47 -54.01685 -67.75282 33058 ft 217 kts 342°
2026-04-21 13:48 -54.00205 -67.75237 33411 ft 212 kts 342°
2026-04-21 13:48 -53.98736 -67.75191 33768 ft 208 kts 342°
2026-04-21 13:48 -53.97321 -67.75148 34115 ft 203 kts 341°
2026-04-21 13:48 -53.95930 -67.75105 34472 ft 197 kts 341°
2026-04-21 13:49 -53.94534 -67.75075 34598 ft 201 kts 341°
2026-04-21 13:49 -53.93095 -67.75056 34622 ft 210 kts 341°
2026-04-21 13:49 -53.91607 -67.75031 34629 ft 219 kts 342°
2026-04-21 13:49 -53.90039 -67.74993 34622 ft 228 kts 343°
2026-04-21 13:50 -53.88408 -67.74946 34619 ft 237 kts 343°
2026-04-21 13:50 -53.86752 -67.74895 34624 ft 245 kts 344°
2026-04-21 13:50 -53.85012 -67.74841 34625 ft 253 kts 344°
2026-04-21 13:50 -53.83219 -67.74787 34628 ft 262 kts 344°
2026-04-21 13:51 -53.81352 -67.74666 34617 ft 281 kts 351°
2026-04-21 13:51 -53.79381 -67.73721 34634 ft 307 kts
2026-04-21 13:51 -53.77373 -67.71938 34627 ft 341 kts 15°
2026-04-21 13:51 -53.75496 -67.69315 34619 ft 379 kts 31°
2026-04-21 13:52 -53.74056 -67.65250 34629 ft 425 kts 53°
2026-04-21 13:52 -53.73359 -67.60246 34633 ft 455 kts 71°
2026-04-21 13:52 -53.73089 -67.54840 34621 ft 466 kts 76°
2026-04-21 13:52 -53.72855 -67.49428 34623 ft 468 kts 74°
2026-04-21 13:53 -53.71816 -67.38646 34626 ft 464 kts 66°
2026-04-21 13:53 -53.70112 -67.28249 34620 ft 462 kts 60°
2026-04-21 13:54 -53.68228 -67.17950 34629 ft 465 kts 60°
2026-04-21 13:54 -53.66383 -67.07450 34632 ft 470 kts 62°
2026-04-21 13:55 -53.64593 -66.96837 34633 ft 473 kts 63°
2026-04-21 13:55 -53.62806 -66.86212 34631 ft 475 kts 62°
2026-04-21 13:56 -53.60974 -66.75457 34650 ft 477 kts 63°
2026-04-21 13:56 -53.59121 -66.64716 34644 ft 479 kts 63°
2026-04-21 13:57 -53.57264 -66.54024 34649 ft 481 kts 63°
2026-04-21 13:57 -53.55376 -66.43197 34649 ft 482 kts 63°
2026-04-21 13:58 -53.53488 -66.32430 34658 ft 482 kts 62°
2026-04-21 13:58 -53.51592 -66.21670 34660 ft 481 kts 62°
2026-04-21 13:59 -53.49686 -66.10940 34661 ft 481 kts 63°
2026-04-21 13:59 -53.47780 -66.00281 34668 ft 481 kts 63°
2026-04-21 14:00 -53.45845 -65.89514 34662 ft 481 kts 62°
2026-04-21 14:00 -53.43918 -65.78851 34652 ft 481 kts 63°
2026-04-21 14:01 -53.41975 -65.68165 34655 ft 481 kts 63°
2026-04-21 14:01 -53.40017 -65.57459 34664 ft 481 kts 62°
2026-04-21 14:02 -53.38060 -65.46823 34657 ft 482 kts 63°
2026-04-21 14:03 -53.35089 -65.30795 34672 ft 482 kts 62°
2026-04-21 14:03 -53.33115 -65.20197 34674 ft 479 kts 61°
2026-04-21 14:04 -53.31117 -65.09554 34682 ft 479 kts 62°
2026-04-21 14:04 -53.29127 -64.99018 34682 ft 479 kts 61°
2026-04-21 14:05 -53.27115 -64.88423 34681 ft 479 kts 62°
2026-04-21 14:05 -53.25115 -64.77945 34678 ft 479 kts 62°
2026-04-21 14:06 -53.23086 -64.67376 34688 ft 479 kts 62°
2026-04-21 14:06 -53.21052 -64.56838 34695 ft 480 kts 62°
2026-04-21 14:07 -53.19005 -64.46293 34695 ft 481 kts 62°
2026-04-21 14:07 -53.16943 -64.35732 34680 ft 482 kts 62°
2026-04-21 14:08 -53.14874 -64.25176 34690 ft 480 kts 61°
2026-04-21 14:08 -53.12796 -64.14635 34687 ft 480 kts 61°
2026-04-21 14:09 -53.10703 -64.04089 34680 ft 480 kts 61°
2026-04-21 14:09 -53.08602 -63.93560 34690 ft 480 kts 61°
2026-04-21 14:10 -53.06509 -63.83123 34694 ft 480 kts 61°
2026-04-21 14:10 -53.04396 -63.72643 34699 ft 480 kts 62°
2026-04-21 14:11 -53.02261 -63.62111 34706 ft 480 kts 62°
2026-04-21 14:11 -53.00128 -63.51641 34713 ft 480 kts 62°
2026-04-21 14:12 -52.97988 -63.41194 34709 ft 480 kts 62°
2026-04-21 14:12 -52.95833 -63.30731 34714 ft 480 kts 62°
2026-04-21 14:13 -52.93668 -63.20272 34718 ft 479 kts 61°
2026-04-21 14:13 -52.91509 -63.09891 34718 ft 478 kts 62°
2026-04-21 14:14 -52.89339 -62.99517 34728 ft 477 kts 62°
2026-04-21 14:14 -52.87159 -62.89154 34723 ft 477 kts 62°
2026-04-21 14:15 -52.84964 -62.78776 34728 ft 477 kts 62°
2026-04-21 14:15 -52.82784 -62.68508 34728 ft 477 kts 62°
2026-04-21 14:16 -52.80577 -62.58171 34732 ft 477 kts 62°
2026-04-21 14:16 -52.78367 -62.47872 34736 ft 476 kts 63°
2026-04-21 14:17 -52.76161 -62.37652 34732 ft 477 kts 63°
2026-04-21 14:17 -52.73930 -62.27356 34736 ft 474 kts 62°
2026-04-21 14:18 -52.71710 -62.17171 34740 ft 473 kts 62°
2026-04-21 14:18 -52.69470 -62.07010 34742 ft 472 kts 62°
2026-04-21 14:19 -52.67232 -61.96912 34743 ft 471 kts 62°
2026-04-21 14:19 -52.64975 -61.86771 34744 ft 472 kts 62°
2026-04-21 14:20 -52.62712 -61.76648 34748 ft 472 kts 62°
2026-04-21 14:20 -52.60449 -61.66564 34751 ft 471 kts 63°
2026-04-21 14:21 -52.58191 -61.56556 34753 ft 470 kts 63°
2026-04-21 14:21 -52.55920 -61.46537 34759 ft 469 kts 63°
2026-04-21 14:22 -52.53628 -61.36476 34767 ft 468 kts 63°
2026-04-21 14:22 -52.51346 -61.26505 34766 ft 468 kts 62°
2026-04-21 14:23 -52.49056 -61.16548 34774 ft 466 kts 62°
2026-04-21 14:23 -52.46849 -61.06603 34781 ft 468 kts 65°
2026-04-21 14:24 -52.45021 -60.96325 34786 ft 470 kts 69°
2026-04-21 14:24 -52.43285 -60.86046 34787 ft 469 kts 68°
2026-04-21 14:25 -52.41467 -60.75826 34568 ft 473 kts 68°
2026-04-21 14:25 -52.40527 -60.70705 34233 ft 468 kts 68°
2026-04-21 14:25 -52.39584 -60.65618 33659 ft 467 kts 68°
2026-04-21 14:25 -52.38649 -60.60591 33103 ft 465 kts 68°
2026-04-21 14:26 -52.37709 -60.55541 32551 ft 464 kts 68°
2026-04-21 14:26 -52.36770 -60.50501 31999 ft 462 kts 68°
2026-04-21 14:26 -52.35840 -60.45506 31452 ft 459 kts 68°
2026-04-21 14:26 -52.34912 -60.40530 30906 ft 457 kts 68°
2026-04-21 14:27 -52.33979 -60.35539 30353 ft 455 kts 68°
2026-04-21 14:27 -52.33064 -60.30657 29838 ft 452 kts 67°
2026-04-21 14:27 -52.32134 -60.25705 29318 ft 450 kts 67°
2026-04-21 14:27 -52.31208 -60.20791 28800 ft 448 kts 67°
2026-04-21 14:28 -52.30293 -60.15951 28287 ft 447 kts 67°
2026-04-21 14:28 -52.29395 -60.11160 27780 ft 445 kts 67°
2026-04-21 14:28 -52.28462 -60.06368 27274 ft 443 kts 66°
2026-04-21 14:28 -52.27540 -60.01634 26769 ft 443 kts 67°
2026-04-21 14:29 -52.26622 -59.96825 26260 ft 442 kts 67°
2026-04-21 14:29 -52.25721 -59.92073 25754 ft 440 kts 68°
2026-04-21 14:29 -52.24825 -59.87352 25249 ft 440 kts 68°
2026-04-21 14:29 -52.23918 -59.82596 24746 ft 439 kts 68°
2026-04-21 14:30 -52.23008 -59.77855 24247 ft 438 kts 67°
2026-04-21 14:30 -52.22090 -59.73101 23745 ft 437 kts 67°
2026-04-21 14:30 -52.21188 -59.68453 23251 ft 437 kts 68°
2026-04-21 14:30 -52.20265 -59.63709 22740 ft 435 kts 68°
2026-04-21 14:31 -52.19378 -59.59136 22233 ft 415 kts 68°
2026-04-21 14:31 -52.18537 -59.54776 21710 ft 394 kts 68°
2026-04-21 14:31 -52.17719 -59.50554 21183 ft 378 kts 67°
2026-04-21 14:31 -52.16946 -59.46596 20675 ft 366 kts 67°
2026-04-21 14:32 -52.16177 -59.42685 20172 ft 355 kts 66°
2026-04-21 14:32 -52.15432 -59.38926 19659 ft 346 kts 67°
2026-04-21 14:32 -52.14700 -59.35237 19145 ft 339 kts 66°
2026-04-21 14:32 -52.13988 -59.31658 18645 ft 332 kts 66°
2026-04-21 14:33 -52.13286 -59.28126 18146 ft 326 kts 66°
2026-04-21 14:33 -52.12600 -59.24682 17662 ft 321 kts 66°
2026-04-21 14:33 -52.11920 -59.21269 17171 ft 317 kts 66°
2026-04-21 14:33 -52.11245 -59.17879 16676 ft 312 kts 66°
2026-04-21 14:34 -52.10578 -59.14542 16173 ft 308 kts 66°
2026-04-21 14:34 -52.09926 -59.11288 15687 ft 304 kts 66°
2026-04-21 14:34 -52.09274 -59.08043 15189 ft 301 kts 66°
2026-04-21 14:34 -52.08629 -59.04829 14689 ft 298 kts 66°
2026-04-21 14:35 -52.07992 -59.01655 14187 ft 296 kts 66°
2026-04-21 14:35 -52.07362 -58.98525 13691 ft 294 kts 66°
2026-04-21 14:35 -52.06725 -58.95364 13183 ft 292 kts 66°
2026-04-21 14:35 -52.06105 -58.92291 12681 ft 290 kts 66°
2026-04-21 14:36 -52.05482 -58.89208 12183 ft 288 kts 66°
2026-04-21 14:36 -52.04855 -58.86111 11674 ft 286 kts 66°
2026-04-21 14:36 -52.04244 -58.83097 11182 ft 284 kts 67°
2026-04-21 14:36 -52.03625 -58.80049 10675 ft 282 kts 67°
2026-04-21 14:37 -52.03019 -58.77067 10177 ft 281 kts 67°
2026-04-21 14:37 -52.02412 -58.74085 9677 ft 279 kts 67°
2026-04-21 14:37 -52.01808 -58.71122 9278 ft 273 kts 67°
2026-04-21 14:37 -52.01220 -58.68238 8900 ft 268 kts 67°
2026-04-21 14:38 -52.00639 -58.65394 8517 ft 263 kts 67°
2026-04-21 14:38 -52.00071 -58.62620 8140 ft 259 kts 66°
2026-04-21 14:38 -51.99507 -58.59873 7762 ft 256 kts 66°
2026-04-21 14:38 -51.98949 -58.57158 7376 ft 253 kts 66°
2026-04-21 14:39 -51.98402 -58.54502 7000 ft 250 kts 66°
2026-04-21 14:39 -51.97850 -58.51821 6614 ft 248 kts 66°
2026-04-21 14:39 -51.97308 -58.49196 6240 ft 246 kts 66°
2026-04-21 14:39 -51.96769 -58.46584 5863 ft 244 kts 66°
2026-04-21 14:40 -51.96239 -58.44022 5610 ft 241 kts 66°
2026-04-21 14:40 -51.95701 -58.41425 5352 ft 241 kts 66°
2026-04-21 14:40 -51.95171 -58.38875 5107 ft 241 kts 66°
2026-04-21 14:40 -51.94637 -58.36302 4852 ft 241 kts 66°
2026-04-21 14:41 -51.94107 -58.33753 4599 ft 240 kts 65°
2026-04-21 14:41 -51.93579 -58.31214 4350 ft 239 kts 64°
2026-04-21 14:41 -51.93051 -58.28662 4098 ft 238 kts 64°
2026-04-21 14:41 -51.92210 -58.26500 3820 ft 220 kts 31°
2026-04-21 14:42 -51.90875 -58.25622 3587 ft 203 kts
2026-04-21 14:42 -51.89489 -58.25363 3337 ft 200 kts 357°
2026-04-21 14:42 -51.88112 -58.25249 3079 ft 193 kts 356°
2026-04-21 14:42 -51.86814 -58.25188 2818 ft 183 kts 353°
2026-04-21 14:43 -51.85753 -58.25892 2652 ft 153 kts 323°
2026-04-21 14:43 -51.85096 -58.27102 2337 ft 147 kts 295°
2026-04-21 14:43 -51.85051 -58.28763 1994 ft 144 kts 281°
2026-04-21 14:43 -51.84843 -58.30217 1831 ft 124 kts 296°
2026-04-21 14:44 -51.84589 -58.31306 1745 ft 91 kts 298°
2026-04-21 14:44 -51.84422 -58.32270 1558 ft 92 kts 293°
2026-04-21 14:44 -51.84283 -58.33281 1415 ft 90 kts 296°
2026-04-21 14:44 -51.84116 -58.34231 1281 ft 88 kts 297°
2026-04-21 14:45 -51.83949 -58.35177 1210 ft 86 kts 297°
2026-04-21 14:45 -51.83752 -58.36074 1165 ft 84 kts 299°
2026-04-21 14:45 -51.83579 -58.36978 1117 ft 85 kts 298°
2026-04-21 14:45 -51.83406 -58.37937 998 ft 93 kts 296°
2026-04-21 14:46 -51.83234 -58.38953 909 ft 94 kts 295°
2026-04-21 14:46 -51.83059 -58.39988 755 ft 94 kts 299°
2026-04-21 14:46 -51.82877 -58.40994 651 ft 94 kts 297°
2026-04-21 14:46 -51.82707 -58.42017 511 ft 96 kts 297°
2026-04-21 14:47 -51.82536 -58.43063 353 ft 99 kts 296°
2026-04-21 14:47 -51.82349 -58.44137 233 ft 95 kts 298°
2026-04-21 14:47 -51.82188 -58.45003 234 ft 60 kts 283°
2026-04-21 14:47 -51.82132 -58.45401 240 ft 11 kts 279°
2026-04-21 14:48 -51.82125 -58.45451 241 ft 6 kts 114°
2026-04-21 14:48 -51.82111 -58.45392 240 ft 5 kts 48°
2026-04-21 14:48 -51.82086 -58.45339 239 ft 5 kts 59°
2026-04-21 14:48 -51.82065 -58.45278 239 ft 7 kts 62°
2026-04-21 14:49 -51.82040 -58.45208 238 ft 7 kts 57°
2026-04-21 14:49 -51.82017 -58.45141 237 ft 6 kts 64°
2026-04-21 14:49 -51.82010 -58.45077 236 ft 6 kts 113°
2026-04-21 14:49 -51.82024 -58.45003 235 ft 7 kts 105°
2026-04-21 14:50 -51.82030 -58.44962 234 ft 5 kts 91°
2026-04-21 14:50 -51.82007 -58.44915 234 ft 2 kts 78°
2026-04-21 14:50 -51.82006 -58.44879 234 ft 3 kts 83°
2026-04-21 14:50 -51.82004 -58.44873 234 ft 0 kts 330°